User: anonymous   Login
Location: Aressy
(43.2833°N, 0.3167°W)
Time: 22:51:56
(UTC+00:00)
Language:

Cosmos 2112 Rocket - Orbit

View from above orbital plane
View from above orbital plane
View from above satellite
View from above satellite

Ground track
Ground track

The orbit data is extracted from the following two-line orbital elements,

1 21015U 90111B   21110.35595526  .00000021  00000-0  16291-4 0  9992
2 21015  74.0500  83.3577 0021664 357.9522   2.1539 14.36033449687303
Epoch (UTC): 20 April 2021 08:32:34
Eccentricity: 0.0021664
inclination: 74.0500°
perigee height: 756 km
apogee height: 787 km
right ascension of ascending node: 83.3577°
argument of perigee: 357.9522°
revolutions per day: 14.36033449
mean anomaly at epoch: 2.1539°
orbit number at epoch: 68730

The dashed part of the orbit path shows where the satellite is in the earth's shadow,  

DLR